Simultaneous Nadir Overpasses (SNOs) Predictions

Prediction of SNOs between LANDSAT-8 and METOP-A Satellite Orbit:

Table of predicted SNOs for the next 14.0 days since TLE Epoch: 12/22/2014
Index Date (LANDSAT-8) Time (LANDSAT-8) Lat,Lon (LANDSAT-8) SZA (LANDSAT-8 ) Date (METOP-A) Time (METOP-A) Lat,Lon (METOP-A) SZA (METOP-A ) Distance(km) Time Diff (sec)
1 12/22/2014 12:03:29 81.10, 38.56 106.45 12/22/2014 12:02:39 81.10, 38.51 106.43 0.85 50
2 12/22/2014 12:52:55 -81.12,-153.50 73.51 12/22/2014 12:53:18 -81.13,-153.39 73.48 2.02 23
3 12/25/2014 07:37:43 81.11, 105.11 106.39 12/25/2014 07:36:59 81.11, 105.11 106.37 0.20 44
4 12/25/2014 08:27:09 -81.13, -86.93 73.57 12/25/2014 08:27:38 -81.14, -86.78 73.54 2.59 29
5 12/28/2014 03:11:57 81.10, 171.40 106.23 12/28/2014 03:11:20 81.10, 171.22 106.20 3.17 37
6
